This demonstration page uses our WeatherBlox Daily Observations layout. Learn more.

Left ArrowRight Arrow

41.12389, -100.76542

Hourly Observations for March 4, 2015

Temp ( °F °C ) Dew Point ( °F °C ) Humidity (%) Winds ( mph kmh ) Pressure ( in mb ) Visibility ( mi km ) Precip ( " mm )
12:53 am 00:53 Cloudy with Light Snow 16 -8.9 12 -11.1 84 84 N 3 6 30.22 1023 9 14 0.00 0.03
1:53 am 01:53 Cloudy 16 -8.9 11 -11.7 80 80 NNW 7 11 30.22 1024 10 16 0.00 0.03
2:53 am 02:53 Partly Cloudy 13 -10.6 9 -12.8 84 84 N 5 7 30.24 1024 10 16 0.00 0.00
3:53 am 03:53 Partly Cloudy 7 -13.9 4 -15.6 87 87 NW 5 7 30.26 1025 10 16 0.00 0.00
4:53 am 04:53 Clear 7 -14 3 -16 85 85 Calm 30.45 1031 10 16 0.00 0.00
5:53 am 05:53 Clear 7 -13.9 5 -15 91 91 NW 3 6 30.32 1027 10 16 0.00 0.00
6:53 am 06:53 Mostly Clear 7 -13.9 4 -15.6 87 87 NW 5 7 30.35 1028 10 16 0.00 0.00
7:53 am 07:53 Mostly Sunny 9 -12.8 5 -15 84 84 NW 3 6 30.36 1028 10 16 0.00 0.00
8:53 am 08:53 Sunny 15 -9.4 10 -12.2 80 80 W 9 15 30.37 1028 10 16 0.00 0.00
9:53 am 09:53 Sunny 19 -7.2 7 -13.9 59 59 NW 9 15 30.38 1029 10 16 0.00 0.00
10:53 am 10:53 Sunny 23 -5 4 -15.6 44 44 NW 12 19 30.37 1029 10 16 0.00 0.00
11:53 am 11:53 Mostly Sunny 26 -3.3 3 -16.1 37 37 WNW 21 33 30.37 1028 10 16 0.00 0.00
12:53 pm 12:53 Sunny 27 -2.8 4 -15.6 37 37 W 17 28 30.35 1028 10 16 0.00 0.00
1:53 pm 13:53 Partly Cloudy 30 -1.1 1 -17.2 29 29 WNW 18 30 30.32 1027 10 16 0.00 0.00
2:53 pm 14:53 Mostly Sunny 31 -0.6 -1 -18.3 25 25 WNW 21 33 30.30 1026 10 16 0.00 0.00
3:53 pm 15:53 Mostly Sunny 30 -1.1 -2 -18.9 25 25 NW 22 35 30.32 1027 10 16 0.00 0.00
4:53 pm 16:53 Sunny 30 -1 -2 -19 24 24 NNW 22 35 30.33 1027 10 16 0.00 0.00
5:53 pm 17:53 Mostly Sunny 27 -2.8 -2 -18.9 28 28 NNW 23 37 30.34 1027 10 16 0.00 0.00
6:53 pm 18:53 Clear 23 -5 -3 -19.4 32 32 NNW 9 15 30.37 1029 10 16 0.00 0.00
7:53 pm 19:53 Clear 16 -8.9 -2 -18.9 45 45 N 5 7 30.42 1030 10 16 0.00 0.00
8:53 pm 20:53 Clear 15 -9.4 -2 -18.9 46 46 NNE 7 11 30.43 1031 10 16 0.00 0.00
9:53 pm 21:53 Clear 11 -11.7 -1 -18.3 58 58 E 5 7 30.47 1032 10 16 0.00 0.00
10:53 pm 22:53 Clear 8 -13.3 -1 -18.3 66 66 ESE 5 7 30.48 1032 10 16 0.00 0.00
11:53 pm 23:53 Clear 6 -14.4 -2 -18.9 69 69 E 3 6 30.48 1032 10 16 0.00 0.00

Powered by AerisWeather